{"data":{"norad_id":66152,"intl_designator":"2025-240G","name":"STARLINK-35455","alt_names":[],"object_type":"PAYLOAD","status":"ACTIVE","operator":null,"country":"US","launch_date":"2025-10-25","launch_site_code":"AFWTR","launch_vehicle":null,"mission":null,"orbit_class":"UNKNOWN","rcs_meters":null,"size_class":null,"mass_kg":null,"dimensions":null,"purposes":["comms"],"wikipedia_slug":null,"has_3d_model":false,"image_url":null,"decayed_at":null,"tle_current":{"epoch":"2026-05-25T01:42:23.274144Z","epoch_age_seconds":66121,"freshness":"FRESH","line1":"1 66152U 25240G   26145.07110271  .00019330  00000+0  58176-3 0  9995","line2":"2 66152  53.1582  67.2645 0001025  83.3475 276.7645 15.34398988 33690","mean_motion":15.34398988,"eccentricity":0.0001025,"inclination_deg":53.1582,"raan_deg":67.2645,"arg_perigee_deg":83.3475,"mean_anomaly_deg":276.7645,"bstar":0.00058176,"rev_number":3369,"period_min":93.847819977837,"perigee_km":462.0050616531,"apogee_km":463.40743451896,"semimajor_km":6840.843248086,"source":"CELESTRAK","updated_at":"2026-05-25T13:38:21.069738Z"}}}